SCP
0 0 0 0 0 0 0 0 0 0 0 0 0 0 0 0 0 0 0 0 0 0 0 0 0 0 0 0 0 0 0 0 0 0 0 0 0 0 0 0 0 0 0 0
0 0 0 0 0 0 0 0 0 0 0 0 0 0 0 0 0 0 0 0 0 0 0 0 0 0 0 0 0 0 0 0 0 0 0 0 0 0 0 0 0 0 0 0
0 0 0 0 0 0 0 0 0 0 0 0 0 0 0 0 0 0 0 0 0 0 0 0 0 0 0 0 0 0 0 0 0 0 0 0 0 0 0 0 0 0 0 0
0 0 0 0 0 0 0 0 0 0 0 0 0 0 0 0 0 0 0 0 0 0 0 0 0 0 0 0 0 0 0 0 0 0 0 0 0 0 0 0 0 0 0 0
0 0 0 0 0 0 0 0 0 0 0 0 0 0 0 0 0 0 0 0 0 0 0 0 0 0 0 0 0 0 0 0 0 0 0 0 0 0 0 0 0 0 0 0
0 0 0 0 0 0 0 0 0 0 0 0 0 0 0 0 0 0 0 0 0 0 0 0 0 0 0 0 0 0 0 0 0 0 0 0 0 0 0 0 0 0 0 0
0 0 0 0 0 0 0 0 0 0 0 0 0 0 0 0 0 0 0 0 0 0 0 0 0 0 0 0 0 0 0 0 0 0 0 0 0 0 0 0 0 0 0 0
0 0 0 0 0 0 0 0 0 0 0 0 0 0 0 0 0 0 0 0 0 0 0 0 0 0 0 0 0 0 0 0 0 0 0 0 0 0 0 0 0 0 0 0
0 0 0 0 0 0 0 0 0 0 0 0 0 0 0 0 0 0 0 0 0 0 0 0 0 0 0 0 0 0 0 0 0 0 0 0 0 0 0 0 0 0 0 0
0 0 0 0 0 0 0 0 0 0 0 0 0 0 0 0 0 0 0 0 0 0 0 0 0 0 0 0 0 0 0 0 0 0 0 0 0 0 0 0 0 0 0 0
0 0 0 0 0 0 0 0 0 0 0 0 0 0 0 0 0 0 0 0 0 0 0 0 0 0 0 0 0 0 0 0 0 0 0 0 0 0 0 0 0 0 0 0
0 0 0 0 0 0 0 0 0 0 0 0 0 0 0 0 0 0 0 0 0 0 0 0 0 0 0 0 0 0 0 0 0 0 0 0 0 0 0 0 0 0 0 0
0 0 0 0 0 0 0 0 0 0 0 0 0 0 0 0 0 0 0 0 0 0 0 0 0 0 0 0 0 0 0 0 0 0 0 0 0 0 0 0 0 0 0 0
0 0 0 0 0 0 0 0 0 0 0 0 0 0 0 0 0 0 0 0 0 0 0 0 0 0 0 0 0 0 0 0 0 0 0 0 0 0 0 0 0 0 0 0
0 0 0 0 0 0 0 0 0 0 0 0 0 0 0 0 0 0 0 0 0 0 0 0 0 0 0 0 0 0 0 0 0 0 0 0 0 0 0 0 0 0 0 0
0 0 0 0 0 0 0 0 0 0 0 0 0 0 0 0 0 0 0 0 0 0 0 0 0 0 0 0 0 0 0 0 0 0 0 0 0 0 0 0 0 0 0 0
0 0 0 0 0 0 0 0 0 0 0 0 0 0 0 0 0 0 0 0 0 0 0 0 0 0 0 0 0 0 0 0 0 0 0 0 0 0 0 0 0 0 0 0
0 0 0 0 0 0 0 0 0 0 0 0 0 0 0 0 0 0 0 0 0 0 0 0 0 0 0 0 0 0 0 0 0 0 0 0 0 0 0 0 0 0 0 0
0 0 0 0 0 0 0 0 0 0 0 0 0 0 0 0 0 0 0 0 0 0 0 0 0 0 0 0 0 0 0 0 0 0 0 0 0 0 0 0 0 0 0 0
0 0 0 0 0 0 0 0 0 0 0 0 0 0 0 0 0 0 0 0 0 0 0 0 0 0 0 0 0 0 0 0 0 0 0 0 0 0 0 0 0 0 0 0
0 0 0 0 0 0 0 0 0 0 0 0 0 0 0 0 0 0 0 0 0 0 0 0 0 0 0 0 0 0 0 0 0 0 0 0 0 0 0 0 0 0 0 0
0 0 0 0 0 0 0 0 0 0 0 0 0 0 0 0 0 0 0 0 0 0 0 0 0 0 0 0 0 0 0 0 0 0 0 0 0 0 0 0 0 0 0 0
0 0 0 0 0 0 0 0 0 0 0 0 0 0 0 0 0 0 0 0 0 0 0 0 0 0 0 0 0 0 0 0 0 0 0 0 0 0 0 0 0 0 0 0
0 0 0 0 0 0 0 0 0 0 0 0 0 0 0 0 0 0 0 0 0 0 0 0 0 0 0 0 0 0 0 0 0 0 0 0 0 0 0 0 0 0 0 0
0 0 0 0 0 0 0 0 0 0 0 0 0 0 0 0 0 0 0 0 0 0 0 0 0 0 0 0 0 0 0 0 0 0 0 0 0 0 0 0 0 0 0 0
0 0 0 0 0 0 0 0 0 0 0 0 0 0 0 0 0 0 0 0 0 0 0 0 0 0 0 0 0 0 0 0 0 0 0 0 0 0 0 0 0 0 0 0
0 0 0 0 0 0 0 0 0 0 0 0 0 0 0 0 0 0 0 0 0 0 0 0 0 0 0 0 0 0 0 0 0 0 0 0 0 0 -0 -0 -0 -0 -0 -0
Wind_Speed_500mb
7 8 6 12 9 19 19 32 25 56 46 59 29 19 32 47 46 50 33 41 36 30 30 28 29 38 43 46 46 46 42 40 38 33 29 33 32 34 39 44 51 38 37 35
7 15 19 14 19 23 30 41 43 53 49 40 42 41 37 44 45 44 45 35 31 32 36 36 38 40 43 44 43 37 38 36 32 31 34 35 34 34 37 35 35 34 32 33
21 8 11 16 29 35 19 22 19 23 19 11 10 15 23 23 32 31 31 28 32 42 39 35 35 41 42 45 40 36 38 35 32 32 38 39 36 32 32 31 32 33 32 32
11 3 38 9 3 8 18 5 9 11 12 9 6 17 18 16 14 16 24 33 38 36 33 39 46 43 48 43 41 40 40 42 37 34 41 39 35 34 30 29 32 36 32 32
10 20 24 17 4 2 9 3 8 5 4 11 8 1 2 3 9 18 23 24 32 41 47 49 46 48 51 42 46 49 46 43 40 36 43 38 33 37 28 31 32 33 32 35
6 13 13 6 6 4 2 6 1 6 8 1 1 5 8 17 25 30 37 42 45 47 49 49 52 49 49 54 53 61 55 46 43 36 42 39 34 36 26 28 29 27 30 27
11 12 11 1 7 9 4 2 5 8 9 14 3 16 38 43 51 54 54 53 48 47 52 56 48 50 60 63 68 64 54 47 45 40 40 37 34 39 39 35 29 28 29 28
6 8 14 7 4 7 7 7 12 18 25 26 32 40 44 47 51 53 56 52 53 54 54 50 46 52 58 66 66 51 49 53 46 41 39 37 34 37 40 45 27 30 29 30
15 7 6 17 20 17 24 15 13 16 19 24 33 38 33 31 26 25 25 23 19 24 30 35 42 44 63 77 64 59 57 57 50 44 38 38 38 39 39 35 27 27 29 34
4 8 6 4 10 14 18 16 22 27 29 30 31 33 37 41 42 42 41 42 45 46 42 53 58 54 51 56 80 52 62 63 58 52 45 39 40 38 33 27 25 25 29 33
4 4 8 5 9 11 25 25 26 25 29 33 33 35 32 32 32 34 40 46 48 56 61 54 56 56 56 59 63 49 60 67 66 55 45 39 37 33 30 25 29 25 28 30
7 21 15 24 33 24 27 31 27 25 29 33 33 32 30 30 39 46 50 54 59 60 60 65 61 57 57 56 59 54 44 63 60 54 45 39 35 29 23 25 23 23 22 27
16 31 47 40 34 27 27 27 28 30 30 28 31 35 36 35 43 48 43 42 41 47 51 55 57 57 51 51 52 49 37 36 33 27 32 31 32 30 27 21 17 20 27 36
45 50 35 18 22 24 25 26 26 27 30 35 38 41 42 43 42 38 40 48 51 55 55 55 51 50 54 52 45 47 41 31 31 33 32 29 29 28 28 24 16 20 25 30
32 25 35 29 18 21 23 24 27 31 31 36 40 44 46 46 44 44 45 47 49 50 53 48 51 57 55 54 50 44 41 42 38 36 32 28 28 25 21 20 15 18 20 21
38 33 26 18 18 18 20 26 24 19 25 34 38 38 36 38 41 43 47 49 55 58 48 49 52 49 53 53 50 50 46 43 41 36 33 29 27 22 22 20 21 25 23 23
36 23 16 18 16 14 14 12 14 17 24 32 34 34 37 42 44 50 51 51 48 41 41 36 44 49 47 50 47 47 46 43 38 35 38 31 28 26 24 22 20 22 28 26
20 21 16 14 13 10 7 13 17 15 26 29 35 39 38 42 49 52 51 47 45 41 40 47 55 62 63 62 61 59 56 54 49 44 41 35 32 35 38 38 35 34 35 29
19 21 18 17 15 12 12 16 10 15 28 31 37 37 36 40 46 47 49 50 48 52 64 70 73 72 70 53 59 64 66 66 66 64 61 64 62 56 55 56 56 57 57 57
26 21 20 17 17 15 12 10 8 19 28 30 31 38 41 47 52 52 52 43 37 54 61 67 71 61 59 60 61 63 62 55 53 53 51 49 49 52 54 57 56 57 55 53
30 23 20 19 17 13 8 9 10 21 24 29 38 42 47 52 51 47 44 46 51 59 67 65 64 60 67 66 65 59 54 52 49 46 47 47 44 44 45 46 49 51 50 50
30 20 19 19 15 12 9 6 14 22 27 31 37 43 48 48 42 43 39 44 63 59 60 62 64 64 65 65 59 52 50 51 47 46 48 47 46 47 47 45 44 38 36 37
24 20 19 18 19 14 5 8 18 26 27 31 38 38 41 35 39 45 57 61 57 53 57 60 63 66 68 64 60 52 45 51 55 55 54 54 56 55 53 49 47 45 45 43
26 24 22 19 18 11 1 11 21 25 26 27 26 33 31 37 44 47 49 55 51 53 58 61 63 68 70 70 62 58 52 49 47 45 40 51 47 43 39 40 42 44 42 39
30 29 23 21 14 3 6 14 20 23 23 22 28 26 29 36 43 49 53 53 53 56 59 63 64 67 70 70 64 61 56 52 47 47 45 49 42 34 39 41 39 38 37 36
36 28 22 14 5 2 10 17 23 23 22 24 26 24 32 39 44 47 50 50 53 56 60 64 67 66 69 71 67 66 63 55 48 47 45 51 49 43 33 28 30 26 25 30
31 24 20 12 6 8 14 20 23 21 19 25 24 26 32 39 44 47 49 50 54 58 61 65 67 68 69 72 72 69 67 61 54 49 48 48 45 48 49 46 41 38 40 42
Wind_Direction_500mb
271 233 222 205 179 241 233 250 260 275 281 279 293 218 214 230 234 245 227 204 201 215 237 258 272 277 286 299 306 308 309 313 312 308 307 298 285 292 294 294 296 311 317 320
270 263 238 245 233 248 243 257 267 270 272 287 277 255 215 231 223 210 216 207 221 237 249 257 272 287 292 302 308 304 309 313 309 314 316 308 294 296 300 303 305 311 318 323
273 223 323 262 234 237 237 231 239 260 284 357 352 298 183 172 183 189 206 222 239 249 248 265 286 300 303 305 300 303 314 312 313 315 320 316 309 304 305 310 315 316 323 321
279 56 268 237 141 217 232 200 354 19 49 29 64 101 128 152 183 224 251 254 252 244 269 289 297 296 310 296 291 296 304 312 307 316 321 316 316 307 303 311 318 321 323 327
251 256 295 288 317 279 203 197 359 94 48 31 28 21 124 106 330 306 296 283 278 285 291 292 289 305 298 281 284 287 294 304 298 304 314 311 314 318 305 307 314 323 324 323
149 268 272 164 138 19 329 250 62 84 61 95 11 36 257 302 307 296 299 293 291 289 285 285 293 303 291 283 276 278 278 292 291 290 305 304 309 313 303 307 310 317 314 312
227 257 278 205 112 52 132 240 343 10 342 326 288 263 299 304 303 306 306 300 295 290 286 292 285 294 286 288 276 275 267 277 283 282 295 299 302 307 304 306 304 310 314 322
196 234 276 130 38 164 203 225 247 246 260 270 295 309 313 317 315 313 307 293 296 292 291 290 286 290 290 295 288 262 261 269 271 271 283 290 294 298 295 299 297 306 317 325
194 207 95 52 37 305 264 258 312 332 332 332 330 340 354 354 358 1 357 351 334 313 307 297 292 308 305 291 270 258 257 255 252 257 272 283 287 294 299 305 292 303 314 325
120 173 234 87 248 89 68 36 20 27 43 50 36 16 5 352 348 344 341 339 338 327 320 324 320 319 311 311 281 261 247 247 240 249 263 271 279 284 290 306 307 300 308 321
186 252 225 135 85 48 67 67 57 45 32 23 11 15 22 21 14 5 358 355 357 358 351 348 341 336 334 329 310 288 265 255 245 246 253 265 266 268 274 297 303 295 301 312
204 195 158 87 94 97 80 63 46 36 27 26 21 27 20 16 6 0 354 347 345 343 338 336 336 339 340 336 340 304 278 253 246 245 248 257 261 261 268 299 304 291 308 301
155 122 122 113 86 69 69 52 41 37 35 37 23 9 1 351 346 349 0 349 343 344 344 340 339 339 332 336 343 336 317 282 267 238 244 249 255 255 262 271 290 285 316 319
141 138 100 85 85 65 51 43 30 27 28 20 10 1 1 1 0 358 350 347 343 346 345 344 341 338 334 331 327 327 323 306 281 279 285 281 267 269 277 282 276 291 307 323
122 120 116 112 88 46 30 23 22 22 15 11 7 6 4 4 1 354 347 344 343 347 352 351 352 353 353 353 352 343 340 327 316 305 297 284 279 281 281 272 272 279 299 306
122 112 113 89 60 40 30 32 28 28 20 11 3 2 357 349 347 346 345 344 345 343 343 342 345 345 344 343 345 345 343 334 328 332 325 309 299 295 290 286 285 290 297 306
127 105 93 79 74 61 50 42 38 40 18 10 11 7 2 360 1 357 349 345 346 345 343 343 339 341 341 335 335 333 331 332 332 330 328 317 310 315 314 308 300 303 305 308
129 113 97 97 114 141 102 50 56 33 14 15 10 6 2 0 356 351 345 344 341 338 337 333 329 325 324 325 320 317 315 315 316 312 313 316 310 304 304 303 302 301 302 304
115 116 113 128 139 124 81 60 55 17 8 7 4 1 355 350 346 340 336 336 338 331 331 330 328 329 329 324 314 311 309 307 304 300 298 297 296 294 295 296 296 296 298 299
129 128 132 123 116 93 90 64 56 9 1 359 352 347 347 345 341 339 338 345 339 334 332 332 334 334 331 321 319 319 323 321 313 307 304 303 299 299 298 295 295 295 295 292
149 141 126 119 121 118 97 80 21 358 355 342 342 342 339 337 340 347 353 348 340 337 338 344 344 336 328 324 319 321 320 321 321 319 312 308 307 304 301 301 299 295 295 295
156 144 134 133 146 145 117 50 351 342 343 340 334 333 335 340 346 349 351 341 338 339 340 345 347 345 339 335 330 317 314 314 315 319 318 318 313 309 304 303 302 305 301 296
156 152 151 157 154 151 157 339 341 342 339 332 331 335 341 348 349 346 342 345 341 341 342 346 346 344 343 341 340 333 317 310 309 308 305 304 301 297 293 294 295 296 294 293
162 170 169 160 169 183 301 356 342 338 333 333 338 341 345 346 345 347 341 342 344 345 348 349 347 348 348 347 341 338 336 331 326 324 320 319 316 309 304 298 293 293 291 288
176 173 170 176 186 152 1 343 333 330 332 338 343 343 344 348 345 344 345 346 347 347 351 352 351 350 351 347 344 342 335 331 328 327 319 309 318 317 309 308 299 297 295 290
176 177 176 180 181 338 331 328 328 329 327 336 347 340 346 346 343 346 348 349 350 352 355 354 354 351 352 349 350 345 338 328 318 313 312 306 304 305 302 300 291 287 285 284
177 175 180 183 226 296 315 320 321 324 332 339 335 339 343 342 346 349 349 353 354 357 357 357 356 356 354 354 356 347 344 340 333 318 308 308 306 295 287 282 277 275 276 278
Wind_Speed_850mb
7 8 6 12 9 19 19 32 25 56 46 59 29 19 32 47 46 50 33 41 36 30 30 28 29 38 43 46 46 46 42 40 38 33 29 33 32 34 39 44 51 38 37 35
7 15 19 14 19 23 30 41 43 53 49 40 42 41 37 44 45 44 45 35 31 32 36 36 38 40 43 44 43 37 38 36 32 31 34 35 34 34 37 35 35 34 32 33
21 8 11 16 29 35 19 22 19 23 19 11 10 15 23 23 32 31 31 28 32 42 39 35 35 41 42 45 40 36 38 35 32 32 38 39 36 32 32 31 32 33 32 32
11 3 38 9 3 8 18 5 9 11 12 9 6 17 18 16 14 16 24 33 38 36 33 39 46 43 48 43 41 40 40 42 37 34 41 39 35 34 30 29 32 36 32 32
10 20 24 17 4 2 9 3 8 5 4 11 8 1 2 3 9 18 23 24 32 41 47 49 46 48 51 42 46 49 46 43 40 36 43 38 33 37 28 31 32 33 32 35
6 13 13 6 6 4 2 6 1 6 8 1 1 5 8 17 25 30 37 42 45 47 49 49 52 49 49 54 53 61 55 46 43 36 42 39 34 36 26 28 29 27 30 27
11 12 11 1 7 9 4 2 5 8 9 14 3 16 38 43 51 54 54 53 48 47 52 56 48 50 60 63 68 64 54 47 45 40 40 37 34 39 39 35 29 28 29 28
6 8 14 7 4 7 7 7 12 18 25 26 32 40 44 47 51 53 56 52 53 54 54 50 46 52 58 66 66 51 49 53 46 41 39 37 34 37 40 45 27 30 29 30
15 7 6 17 20 17 24 15 13 16 19 24 33 38 33 31 26 25 25 23 19 24 30 35 42 44 63 77 64 59 57 57 50 44 38 38 38 39 39 35 27 27 29 34
4 8 6 4 10 14 18 16 22 27 29 30 31 33 37 41 42 42 41 42 45 46 42 53 58 54 51 56 80 52 62 63 58 52 45 39 40 38 33 27 25 25 29 33
4 4 8 5 9 11 25 25 26 25 29 33 33 35 32 32 32 34 40 46 48 56 61 54 56 56 56 59 63 49 60 67 66 55 45 39 37 33 30 25 29 25 28 30
7 21 15 24 33 24 27 31 27 25 29 33 33 32 30 30 39 46 50 54 59 60 60 65 61 57 57 56 59 54 44 63 60 54 45 39 35 29 23 25 23 23 22 27
16 31 47 40 34 27 27 27 28 30 30 28 31 35 36 35 43 48 43 42 41 47 51 55 57 57 51 51 52 49 37 36 33 27 32 31 32 30 27 21 17 20 27 36
45 50 35 18 22 24 25 26 26 27 30 35 38 41 42 43 42 38 40 48 51 55 55 55 51 50 54 52 45 47 41 31 31 33 32 29 29 28 28 24 16 20 25 30
32 25 35 29 18 21 23 24 27 31 31 36 40 44 46 46 44 44 45 47 49 50 53 48 51 57 55 54 50 44 41 42 38 36 32 28 28 25 21 20 15 18 20 21
38 33 26 18 18 18 20 26 24 19 25 34 38 38 36 38 41 43 47 49 55 58 48 49 52 49 53 53 50 50 46 43 41 36 33 29 27 22 22 20 21 25 23 23
36 23 16 18 16 14 14 12 14 17 24 32 34 34 37 42 44 50 51 51 48 41 41 36 44 49 47 50 47 47 46 43 38 35 38 31 28 26 24 22 20 22 28 26
20 21 16 14 13 10 7 13 17 15 26 29 35 39 38 42 49 52 51 47 45 41 40 47 55 62 63 62 61 59 56 54 49 44 41 35 32 35 38 38 35 34 35 29
19 21 18 17 15 12 12 16 10 15 28 31 37 37 36 40 46 47 49 50 48 52 64 70 73 72 70 53 59 64 66 66 66 64 61 64 62 56 55 56 56 57 57 57
26 21 20 17 17 15 12 10 8 19 28 30 31 38 41 47 52 52 52 43 37 54 61 67 71 61 59 60 61 63 62 55 53 53 51 49 49 52 54 57 56 57 55 53
30 23 20 19 17 13 8 9 10 21 24 29 38 42 47 52 51 47 44 46 51 59 67 65 64 60 67 66 65 59 54 52 49 46 47 47 44 44 45 46 49 51 50 50
30 20 19 19 15 12 9 6 14 22 27 31 37 43 48 48 42 43 39 44 63 59 60 62 64 64 65 65 59 52 50 51 47 46 48 47 46 47 47 45 44 38 36 37
24 20 19 18 19 14 5 8 18 26 27 31 38 38 41 35 39 45 57 61 57 53 57 60 63 66 68 64 60 52 45 51 55 55 54 54 56 55 53 49 47 45 45 43
26 24 22 19 18 11 1 11 21 25 26 27 26 33 31 37 44 47 49 55 51 53 58 61 63 68 70 70 62 58 52 49 47 45 40 51 47 43 39 40 42 44 42 39
30 29 23 21 14 3 6 14 20 23 23 22 28 26 29 36 43 49 53 53 53 56 59 63 64 67 70 70 64 61 56 52 47 47 45 49 42 34 39 41 39 38 37 36
36 28 22 14 5 2 10 17 23 23 22 24 26 24 32 39 44 47 50 50 53 56 60 64 67 66 69 71 67 66 63 55 48 47 45 51 49 43 33 28 30 26 25 30
31 24 20 12 6 8 14 20 23 21 19 25 24 26 32 39 44 47 49 50 54 58 61 65 67 68 69 72 72 69 67 61 54 49 48 48 45 48 49 46 41 38 40 42
Wind_Direction_850mb
271 233 222 205 179 241 233 250 260 275 281 279 293 218 214 230 234 245 227 204 201 215 237 258 272 277 286 299 306 308 309 313 312 308 307 298 285 292 294 294 296 311 317 320
270 263 238 245 233 248 243 257 267 270 272 287 277 255 215 231 223 210 216 207 221 237 249 257 272 287 292 302 308 304 309 313 309 314 316 308 294 296 300 303 305 311 318 323
273 223 323 262 234 237 237 231 239 260 284 357 352 298 183 172 183 189 206 222 239 249 248 265 286 300 303 305 300 303 314 312 313 315 320 316 309 304 305 310 315 316 323 321
279 56 268 237 141 217 232 200 354 19 49 29 64 101 128 152 183 224 251 254 252 244 269 289 297 296 310 296 291 296 304 312 307 316 321 316 316 307 303 311 318 321 323 327
251 256 295 288 317 279 203 197 359 94 48 31 28 21 124 106 330 306 296 283 278 285 291 292 289 305 298 281 284 287 294 304 298 304 314 311 314 318 305 307 314 323 324 323
149 268 272 164 138 19 329 250 62 84 61 95 11 36 257 302 307 296 299 293 291 289 285 285 293 303 291 283 276 278 278 292 291 290 305 304 309 313 303 307 310 317 314 312
227 257 278 205 112 52 132 240 343 10 342 326 288 263 299 304 303 306 306 300 295 290 286 292 285 294 286 288 276 275 267 277 283 282 295 299 302 307 304 306 304 310 314 322
196 234 276 130 38 164 203 225 247 246 260 270 295 309 313 317 315 313 307 293 296 292 291 290 286 290 290 295 288 262 261 269 271 271 283 290 294 298 295 299 297 306 317 325
194 207 95 52 37 305 264 258 312 332 332 332 330 340 354 354 358 1 357 351 334 313 307 297 292 308 305 291 270 258 257 255 252 257 272 283 287 294 299 305 292 303 314 325
120 173 234 87 248 89 68 36 20 27 43 50 36 16 5 352 348 344 341 339 338 327 320 324 320 319 311 311 281 261 247 247 240 249 263 271 279 284 290 306 307 300 308 321
186 252 225 135 85 48 67 67 57 45 32 23 11 15 22 21 14 5 358 355 357 358 351 348 341 336 334 329 310 288 265 255 245 246 253 265 266 268 274 297 303 295 301 312
204 195 158 87 94 97 80 63 46 36 27 26 21 27 20 16 6 0 354 347 345 343 338 336 336 339 340 336 340 304 278 253 246 245 248 257 261 261 268 299 304 291 308 301
155 122 122 113 86 69 69 52 41 37 35 37 23 9 1 351 346 349 0 349 343 344 344 340 339 339 332 336 343 336 317 282 267 238 244 249 255 255 262 271 290 285 316 319
141 138 100 85 85 65 51 43 30 27 28 20 10 1 1 1 0 358 350 347 343 346 345 344 341 338 334 331 327 327 323 306 281 279 285 281 267 269 277 282 276 291 307 323
122 120 116 112 88 46 30 23 22 22 15 11 7 6 4 4 1 354 347 344 343 347 352 351 352 353 353 353 352 343 340 327 316 305 297 284 279 281 281 272 272 279 299 306
122 112 113 89 60 40 30 32 28 28 20 11 3 2 357 349 347 346 345 344 345 343 343 342 345 345 344 343 345 345 343 334 328 332 325 309 299 295 290 286 285 290 297 306
127 105 93 79 74 61 50 42 38 40 18 10 11 7 2 360 1 357 349 345 346 345 343 343 339 341 341 335 335 333 331 332 332 330 328 317 310 315 314 308 300 303 305 308
129 113 97 97 114 141 102 50 56 33 14 15 10 6 2 0 356 351 345 344 341 338 337 333 329 325 324 325 320 317 315 315 316 312 313 316 310 304 304 303 302 301 302 304
115 116 113 128 139 124 81 60 55 17 8 7 4 1 355 350 346 340 336 336 338 331 331 330 328 329 329 324 314 311 309 307 304 300 298 297 296 294 295 296 296 296 298 299
129 128 132 123 116 93 90 64 56 9 1 359 352 347 347 345 341 339 338 345 339 334 332 332 334 334 331 321 319 319 323 321 313 307 304 303 299 299 298 295 295 295 295 292
149 141 126 119 121 118 97 80 21 358 355 342 342 342 339 337 340 347 353 348 340 337 338 344 344 336 328 324 319 321 320 321 321 319 312 308 307 304 301 301 299 295 295 295
156 144 134 133 146 145 117 50 351 342 343 340 334 333 335 340 346 349 351 341 338 339 340 345 347 345 339 335 330 317 314 314 315 319 318 318 313 309 304 303 302 305 301 296
156 152 151 157 154 151 157 339 341 342 339 332 331 335 341 348 349 346 342 345 341 341 342 346 346 344 343 341 340 333 317 310 309 308 305 304 301 297 293 294 295 296 294 293
162 170 169 160 169 183 301 356 342 338 333 333 338 341 345 346 345 347 341 342 344 345 348 349 347 348 348 347 341 338 336 331 326 324 320 319 316 309 304 298 293 293 291 288
176 173 170 176 186 152 1 343 333 330 332 338 343 343 344 348 345 344 345 346 347 347 351 352 351 350 351 347 344 342 335 331 328 327 319 309 318 317 309 308 299 297 295 290
176 177 176 180 181 338 331 328 328 329 327 336 347 340 346 346 343 346 348 349 350 352 355 354 354 351 352 349 350 345 338 328 318 313 312 306 304 305 302 300 291 287 285 284
177 175 180 183 226 296 315 320 321 324 332 339 335 339 343 342 346 349 349 353 354 357 357 357 356 356 354 354 356 347 344 340 333 318 308 308 306 295 287 282 277 275 276 278